Tracking 18843 objects as of 20-November-2017
HD Live streaming from Space Station
objects crossing your sky now

COSMOS 1527

Track COSMOS 1527 now!
10-day predictions
COSMOS 1527 is classified as:


NORAD ID: 14616
Int'l Code: 1984-001F
Perigee: 1,465.8 km
Apogee: 1,468.6 km
Inclination: 74.0 °
Period: 115.1 minutes
Semi major axis: 7838 km
RCS: 0.6921 m2 (medium)
Launch date: January 5, 1984
Source: Commonwealth of Independent States (former USSR) (CIS)
Launch site: PLESETSK MISSILE AND SPACE COMPLEX (PKMTR)
aabbcc
Your satellite tracking list
Your tracking list is empty




NASA's NSSDC Master Catalog

Two Line Element Set (TLE):
1 14616U 84001F   17323.61167604 -.00000036 +00000-0 -13142-3 0  9993
2 14616 074.0059 123.3710 0001773 199.0248 232.1325 12.51056923135802
Source of the keplerian elements: AFSPC